Simultaneous Nadir Overpasses (SNOs) Predictions

Prediction of SNOs between LANDSAT-8 and METOP-A Satellite Orbit:

Table of predicted SNOs for the next 14.0 days since TLE Epoch: 10/16/2021
Index Date (LANDSAT-8) Time (LANDSAT-8) Lat,Lon (LANDSAT-8) SZA (LANDSAT-8 ) Date (METOP-A) Time (METOP-A) Lat,Lon (METOP-A) SZA (METOP-A ) Distance(km) Time Diff (sec)
1 10/18/2021 18:14:27 -81.32, 129.64 86.12 10/18/2021 18:13:55 -81.32, 129.47 86.15 2.75 32
2 10/18/2021 19:03:54 81.30, -62.96 93.87 10/18/2021 19:04:35 81.30, -62.89 93.89 1.27 41
3 10/21/2021 13:48:42 -81.31,-164.11 85.13 10/21/2021 13:48:13 -81.31,-163.93 85.12 2.91 29
4 10/21/2021 14:38:09 81.29, 3.27 94.85 10/21/2021 14:38:54 81.31, 3.32 94.89 1.98 45
5 10/24/2021 09:22:58 -81.30, -97.89 84.17 10/24/2021 09:22:33 -81.31, -97.74 84.15 3.14 25
6 10/24/2021 10:12:24 81.30, 69.83 95.86 10/24/2021 10:13:13 81.30, 69.88 95.89 0.76 49
7 10/27/2021 04:57:13 -81.30, -31.35 83.19 10/27/2021 04:56:52 -81.30, -31.19 83.18 2.63 21
8 10/27/2021 05:46:39 81.30, 136.35 96.84 10/27/2021 05:47:32 81.29, 136.41 96.86 1.64 53
9 10/30/2021 00:31:27 -81.30, 35.15 82.24 10/30/2021 00:31:10 -81.30, 35.33 82.24 3.18 17



Historial Predications of SNOs between LANDSAT-8 and METOP-A
